Time,TemperatureF,DewpointF,PressureIn,WindDirection,WindDirectionDegrees,WindSpeedMPH,WindSpeedGustMPH,Humidity,HourlyPrecipIn,Conditions,Clouds,dailyrainin,SoftwareType,DateUTC
2013-10-02 00:07:00,63.3,62.7,29.81,SSW,202,0.0,-999.0,98,-99.99,,,0.00,Acu-Link.com,2013-10-02 04:07:00,
2013-10-02 00:23:00,63.3,62.7,29.82,WSW,247,0.0,-999.0,98,-99.99,,,0.00,Acu-Link.com,2013-10-02 04:23:00,
2013-10-02 00:38:00,63.0,62.4,29.81,ESE,112,0.0,-999.0,98,-99.99,,,0.00,Acu-Link.com,2013-10-02 04:38:00,
2013-10-02 00:53:00,63.1,62.5,29.82,SE,135,1.7,-999.0,98,-99.99,,,0.00,Acu-Link.com,2013-10-02 04:53:00,
2013-10-02 01:08:00,63.7,63.1,29.81,SW,225,0.0,-999.0,98,-99.99,,,0.00,Acu-Link.com,2013-10-02 05:08:00,
2013-10-02 01:24:00,63.7,63.1,29.83,ESE,112,0.0,-999.0,98,-99.99,,,0.00,Acu-Link.com,2013-10-02 05:24:00,
2013-10-02 01:39:00,64.0,63.4,29.83,SW,225,1.7,-999.0,98,-99.99,,,0.00,Acu-Link.com,2013-10-02 05:39:00,
2013-10-02 01:55:00,64.4,63.8,29.82,SW,225,3.7,-999.0,98,-99.99,,,0.00,Acu-Link.com,2013-10-02 05:55:00,
2013-10-02 02:10:00,64.2,63.6,29.83,NE,45,0.0,-999.0,98,-99.99,,,0.00,Acu-Link.com,2013-10-02 06:10:00,
2013-10-02 02:25:00,64.2,63.6,29.82,WSW,247,1.1,-999.0,98,-99.99,,,0.00,Acu-Link.com,2013-10-02 06:25:00,
2013-10-02 02:41:00,64.0,63.4,29.83,NNW,337,0.0,-999.0,98,-99.99,,,0.00,Acu-Link.com,2013-10-02 06:41:00,
2013-10-02 02:56:00,64.0,63.4,29.83,South,180,0.0,-999.0,98,-99.99,,,0.00,Acu-Link.com,2013-10-02 06:56:00,
2013-10-02 03:12:00,64.0,63.4,29.83,South,180,0.0,-999.0,98,-99.99,,,0.00,Acu-Link.com,2013-10-02 07:12:00,
2013-10-02 03:27:00,64.2,63.6,29.82,WSW,247,0.0,-999.0,98,-99.99,,,0.00,Acu-Link.com,2013-10-02 07:27:00,
2013-10-02 03:42:00,64.6,64.0,29.82,West,270,0.0,-999.0,98,-99.99,,,0.00,Acu-Link.com,2013-10-02 07:42:00,
2013-10-02 03:57:00,64.9,64.3,29.83,South,180,0.0,-999.0,98,-99.99,,,0.00,Acu-Link.com,2013-10-02 07:57:00,
2013-10-02 04:13:00,65.5,64.9,29.83,NW,315,0.0,-999.0,98,-99.99,,,0.00,Acu-Link.com,2013-10-02 08:13:00,
2013-10-02 04:28:00,65.5,64.9,29.83,WSW,247,0.0,-999.0,98,-99.99,,,0.00,Acu-Link.com,2013-10-02 08:28:00,
2013-10-02 04:43:00,65.8,65.2,29.82,NE,45,1.7,-999.0,98,-99.99,,,0.00,Acu-Link.com,2013-10-02 08:43:00,
2013-10-02 04:59:00,65.8,65.2,29.83,WSW,247,1.7,-999.0,98,-99.99,,,0.00,Acu-Link.com,2013-10-02 08:59:00,
2013-10-02 05:14:00,66.0,65.4,29.82,WSW,247,1.1,-999.0,98,-99.99,,,0.00,Acu-Link.com,2013-10-02 09:14:00,
2013-10-02 05:29:00,66.0,65.4,29.82,ESE,112,0.0,-999.0,98,-99.99,,,0.00,Acu-Link.com,2013-10-02 09:29:00,
2013-10-02 05:44:00,65.3,64.7,29.82,WSW,247,1.1,-999.0,98,-99.99,,,0.00,Acu-Link.com,2013-10-02 09:44:00,
2013-10-02 06:00:00,65.5,64.9,29.84,SE,135,1.1,-999.0,98,-99.99,,,0.00,Acu-Link.com,2013-10-02 10:00:00,
2013-10-02 06:15:00,65.5,64.9,29.84,SW,225,1.7,-999.0,98,-99.99,,,0.00,Acu-Link.com,2013-10-02 10:15:00,
2013-10-02 06:30:00,65.7,65.1,29.84,South,180,0.0,-999.0,98,-99.99,,,0.00,Acu-Link.com,2013-10-02 10:30:00,
2013-10-02 06:46:00,65.7,65.1,29.84,South,180,0.0,-999.0,98,-99.99,,,0.00,Acu-Link.com,2013-10-02 10:46:00,
2013-10-02 07:01:00,65.1,64.5,29.84,ESE,112,1.1,-999.0,98,-99.99,,,0.00,Acu-Link.com,2013-10-02 11:01:00,
2013-10-02 07:16:00,65.1,64.5,29.84,West,270,0.0,-999.0,98,-99.99,,,0.00,Acu-Link.com,2013-10-02 11:16:00,
2013-10-02 07:32:00,65.5,64.9,29.85,NW,315,0.0,-999.0,98,-99.99,,,0.00,Acu-Link.com,2013-10-02 11:32:00,
2013-10-02 07:47:00,65.8,65.2,29.85,WSW,247,0.0,-999.0,98,-99.99,,,0.00,Acu-Link.com,2013-10-02 11:47:00,
2013-10-02 08:02:00,66.0,65.4,29.85,WSW,247,0.0,-999.0,98,-99.99,,,0.00,Acu-Link.com,2013-10-02 12:02:00,
2013-10-02 08:18:00,66.6,66.0,29.86,SW,225,0.0,-999.0,98,-99.99,,,0.00,Acu-Link.com,2013-10-02 12:18:00,
2013-10-02 08:33:00,67.1,66.5,29.86,West,270,1.1,-999.0,98,-99.99,,,0.00,Acu-Link.com,2013-10-02 12:33:00,
2013-10-02 08:48:00,67.6,67.0,29.87,NNE,22,1.7,-999.0,98,-99.99,,,0.00,Acu-Link.com,2013-10-02 12:48:00,
2013-10-02 09:03:00,68.0,67.4,29.87,WSW,247,0.0,-999.0,98,-99.99,,,0.00,Acu-Link.com,2013-10-02 13:03:00,
2013-10-02 09:19:00,68.4,67.8,29.89,NW,315,0.0,-999.0,98,-99.99,,,0.00,Acu-Link.com,2013-10-02 13:19:00,
2013-10-02 09:34:00,68.7,68.1,29.88,WNW,292,1.1,-999.0,98,-99.99,,,0.00,Acu-Link.com,2013-10-02 13:34:00,
2013-10-02 09:49:00,68.9,68.3,29.88,SW,225,0.0,-999.0,98,-99.99,,,0.00,Acu-Link.com,2013-10-02 13:49:00,
2013-10-02 10:05:00,69.6,67.8,29.88,West,270,0.0,-999.0,94,-99.99,,,0.00,Acu-Link.com,2013-10-02 14:05:00,
2013-10-02 10:20:00,69.8,67.0,29.89,WNW,292,0.0,-999.0,91,-99.99,,,0.00,Acu-Link.com,2013-10-02 14:20:00,
2013-10-02 10:35:00,70.5,67.4,29.89,WNW,292,0.0,-999.0,90,-99.99,,,0.00,Acu-Link.com,2013-10-02 14:35:00,
2013-10-02 10:51:00,70.0,66.9,29.89,WSW,247,0.0,-999.0,90,-99.99,,,0.00,Acu-Link.com,2013-10-02 14:51:00,
2013-10-02 11:06:00,71.1,67.7,29.90,NW,315,1.1,-999.0,89,-99.99,,,0.00,Acu-Link.com,2013-10-02 15:06:00,
2013-10-02 11:21:00,71.8,67.4,29.90,NW,315,0.0,-999.0,86,-99.99,,,0.00,Acu-Link.com,2013-10-02 15:21:00,
2013-10-02 11:37:00,70.7,66.6,29.89,West,270,0.0,-999.0,87,-99.99,,,0.00,Acu-Link.com,2013-10-02 15:37:00,
2013-10-02 11:52:00,72.3,67.5,29.88,ENE,67,2.2,-999.0,85,-99.99,,,0.00,Acu-Link.com,2013-10-02 15:52:00,
2013-10-02 12:07:00,73.2,67.7,29.85,West,270,1.7,-999.0,83,-99.99,,,0.00,Acu-Link.com,2013-10-02 16:07:00,
2013-10-02 12:23:00,73.4,67.9,29.86,SW,225,1.7,-999.0,83,-99.99,,,0.00,Acu-Link.com,2013-10-02 16:23:00,
2013-10-02 12:38:00,72.3,66.8,29.88,West,270,1.7,-999.0,83,-99.99,,,0.00,Acu-Link.com,2013-10-02 16:38:00,
2013-10-02 12:53:00,73.6,68.1,29.89,NW,315,0.0,-999.0,83,-99.99,,,0.00,Acu-Link.com,2013-10-02 16:53:00,
2013-10-02 13:08:00,73.4,68.3,29.89,WNW,292,1.1,-999.0,84,-99.99,,,0.00,Acu-Link.com,2013-10-02 17:08:00,
2013-10-02 13:23:00,75.7,68.3,29.89,WNW,292,1.7,-999.0,78,-99.99,,,0.00,Acu-Link.com,2013-10-02 17:23:00,
2013-10-02 13:39:00,76.1,68.0,29.88,SSW,202,2.2,-999.0,76,-99.99,,,0.00,Acu-Link.com,2013-10-02 17:39:00,
2013-10-02 13:54:00,76.1,68.7,29.87,ENE,67,2.7,-999.0,78,-99.99,,,0.00,Acu-Link.com,2013-10-02 17:54:00,
2013-10-02 14:09:00,75.7,68.3,29.87,SW,225,1.1,-999.0,78,-99.99,,,0.00,Acu-Link.com,2013-10-02 18:09:00,
2013-10-02 14:24:00,76.8,68.3,29.87,North,0,2.2,-999.0,75,-99.99,,,0.00,Acu-Link.com,2013-10-02 18:24:00,
2013-10-02 14:40:00,77.4,68.4,29.86,SW,225,4.7,-999.0,74,-99.99,,,0.00,Acu-Link.com,2013-10-02 18:40:00,
2013-10-02 14:55:00,77.0,69.2,29.87,WNW,292,2.7,-999.0,77,-99.99,,,0.00,Acu-Link.com,2013-10-02 18:55:00,
2013-10-02 15:10:00,77.4,69.2,29.87,SW,225,2.7,-999.0,76,-99.99,,,0.00,Acu-Link.com,2013-10-02 19:10:00,
2013-10-02 15:25:00,76.3,68.5,29.87,NNW,337,2.2,-999.0,77,-99.99,,,0.00,Acu-Link.com,2013-10-02 19:25:00,
2013-10-02 15:40:00,76.8,69.0,29.87,SSW,202,2.7,-999.0,77,-99.99,,,0.00,Acu-Link.com,2013-10-02 19:40:00,
2013-10-02 15:56:00,76.1,69.5,29.87,SSW,202,2.7,-999.0,80,-99.99,,,0.00,Acu-Link.com,2013-10-02 19:56:00,
2013-10-02 16:11:00,74.3,68.4,29.87,ESE,112,1.7,-999.0,82,-99.99,,,0.00,Acu-Link.com,2013-10-02 20:11:00,
2013-10-02 16:26:00,73.6,68.1,29.88,South,180,1.7,-999.0,83,-99.99,,,0.00,Acu-Link.com,2013-10-02 20:26:00,
2013-10-02 16:41:00,75.0,68.0,29.88,SSE,157,0.0,-999.0,79,-99.99,,,0.00,Acu-Link.com,2013-10-02 20:41:00,
2013-10-02 16:56:00,74.1,67.9,29.88,SSW,202,2.7,-999.0,81,-99.99,,,0.00,Acu-Link.com,2013-10-02 20:56:00,
2013-10-02 17:12:00,73.4,67.6,29.89,NE,45,0.0,-999.0,82,-99.99,,,0.00,Acu-Link.com,2013-10-02 21:12:00,
2013-10-02 17:27:00,72.5,67.0,29.88,SW,225,1.1,-999.0,83,-99.99,,,0.00,Acu-Link.com,2013-10-02 21:27:00,
2013-10-02 17:42:00,71.6,66.5,29.89,South,180,4.7,-999.0,84,-99.99,,,0.00,Acu-Link.com,2013-10-02 21:42:00,
2013-10-02 17:58:00,70.7,66.3,29.88,WSW,247,1.1,-999.0,86,-99.99,,,0.00,Acu-Link.com,2013-10-02 21:58:00,
2013-10-02 18:13:00,69.8,66.1,29.89,ENE,67,1.1,-999.0,88,-99.99,,,0.00,Acu-Link.com,2013-10-02 22:13:00,
2013-10-02 18:28:00,68.9,65.5,29.90,West,270,2.2,-999.0,89,-99.99,,,0.00,Acu-Link.com,2013-10-02 22:28:00,
2013-10-02 18:43:00,67.6,64.6,29.90,SE,135,0.0,-999.0,90,-99.99,,,0.00,Acu-Link.com,2013-10-02 22:43:00,
2013-10-02 18:59:00,66.6,64.2,29.91,SSE,157,0.0,-999.0,92,-99.99,,,0.00,Acu-Link.com,2013-10-02 22:59:00,
2013-10-02 19:14:00,65.7,63.9,29.91,SSE,157,0.0,-999.0,94,-99.99,,,0.00,Acu-Link.com,2013-10-02 23:14:00,
2013-10-02 19:29:00,64.9,64.3,29.91,South,180,0.0,-999.0,98,-99.99,,,0.00,Acu-Link.com,2013-10-02 23:29:00,
2013-10-02 19:44:00,64.4,63.8,29.93,NNE,22,0.0,-999.0,98,-99.99,,,0.00,Acu-Link.com,2013-10-02 23:44:00,
2013-10-02 19:59:00,63.5,62.9,29.93,South,180,0.0,-999.0,98,-99.99,,,0.00,Acu-Link.com,2013-10-02 23:59:00,
2013-10-02 20:14:00,62.8,62.2,29.94,ESE,112,0.0,-999.0,98,-99.99,,,0.00,Acu-Link.com,2013-10-03 00:14:00,
2013-10-02 20:30:00,62.1,61.5,29.93,ESE,112,0.0,-999.0,98,-99.99,,,0.00,Acu-Link.com,2013-10-03 00:30:00,
2013-10-02 20:45:00,61.5,60.9,29.93,ESE,112,0.0,-999.0,98,-99.99,,,0.00,Acu-Link.com,2013-10-03 00:45:00,
2013-10-02 21:00:00,61.2,60.6,29.94,ESE,112,0.0,-999.0,98,-99.99,,,0.00,Acu-Link.com,2013-10-03 01:00:00,
2013-10-02 21:15:00,60.4,59.8,29.94,NE,45,0.0,-999.0,98,-99.99,,,0.00,Acu-Link.com,2013-10-03 01:15:00,
2013-10-02 21:31:00,59.9,59.3,29.94,NNE,22,0.0,-999.0,98,-99.99,,,0.00,Acu-Link.com,2013-10-03 01:31:00,
2013-10-02 21:46:00,59.7,59.1,29.95,NNE,22,0.0,-999.0,98,-99.99,,,0.00,Acu-Link.com,2013-10-03 01:46:00,
2013-10-02 22:01:00,59.5,58.9,29.96,SSW,202,0.0,-999.0,98,-99.99,,,0.00,Acu-Link.com,2013-10-03 02:01:00,
2013-10-02 22:16:00,58.8,58.2,29.96,SSW,202,0.0,-999.0,98,-99.99,,,0.00,Acu-Link.com,2013-10-03 02:16:00,
2013-10-02 22:32:00,58.3,57.7,29.96,SSW,202,0.0,-999.0,98,-99.99,,,0.00,Acu-Link.com,2013-10-03 02:32:00,
2013-10-02 22:47:00,57.9,57.3,29.97,SSW,202,0.0,-999.0,98,-99.99,,,0.00,Acu-Link.com,2013-10-03 02:47:00,
2013-10-02 23:03:00,57.4,56.8,29.97,SSW,202,0.0,-999.0,98,-99.99,,,0.00,Acu-Link.com,2013-10-03 03:03:00,
2013-10-02 23:18:00,56.5,55.9,29.98,SSW,202,0.0,-999.0,98,-99.99,,,0.00,Acu-Link.com,2013-10-03 03:18:00,
2013-10-02 23:33:00,55.4,54.8,29.98,SSW,202,0.0,-999.0,98,-99.99,,,0.00,Acu-Link.com,2013-10-03 03:33:00,
2013-10-02 23:49:00,54.5,53.9,29.98,SSW,202,0.0,-999.0,98,-99.99,,,0.00,Acu-Link.com,2013-10-03 03:49:00,